This is the latest recevied weather packets stored in our database for station/object N4BBA. If no packets are shown the sender has not sent any weather packets the latest 10 day(s).
| Time | Temp. | Humidity | Pressure | Rain* | Wind** | Luminosity | Snow |
|---|---|---|---|---|---|---|---|
| 1778090310 | 26.67° C | 58% | 1013.6 hPa | 0 mm | - | 659 W/m² | - |
| 1778090007 | 26.67° C | 57% | 1013.6 hPa | 0 mm | - | 361 W/m² | - |
| 1778089704 | 26.67° C | 57% | 1013.5 hPa | 0 mm | - | 665 W/m² | - |
| 1778089401 | 26.67° C | 58% | 1013.5 hPa | 0 mm | - | 661 W/m² | - |
| 1778089099 | 26.67° C | 58% | 1013.8 hPa | 0 mm | - | 605 W/m² | - |
| 1778088796 | 26.67° C | 58% | 1013.7 hPa | 0 mm | - | 703 W/m² | - |
| 1778088492 | 26.67° C | 58% | 1013.8 hPa | 0 mm | - | 714 W/m² | - |
| 1778088189 | 26.67° C | 58% | 1013.9 hPa | 0 mm | - | 775 W/m² | - |
| 1778087887 | 26.11° C | 59% | 1013.9 hPa | 0 mm | - | 785 W/m² | - |
| 1778087583 | 25.56° C | 59% | 1013.9 hPa | 0 mm | - | 671 W/m² | - |
| 1778087281 | 25.56° C | 59% | 1014 hPa | 0 mm | - | 699 W/m² | - |
| 1778086977 | 25.56° C | 59% | 1013.9 hPa | 0 mm | - | 543 W/m² | - |
| 1778086676 | 25.56° C | 59% | 1013.8 hPa | 0 mm | - | 676 W/m² | - |
| 1778086373 | 25° C | 60% | 1013.9 hPa | 0 mm | - | 579 W/m² | - |
| 1778086070 | 25° C | 60% | 1013.8 hPa | 0 mm | - | 390 W/m² | - |
| 1778085766 | 24.44° C | 60% | 1014.1 hPa | 0 mm | - | 260 W/m² | - |
| 1778085463 | 25° C | 59% | 1014 hPa | 0 mm | - | 248 W/m² | - |
| 1778085158 | 25.56° C | 59% | 1014.1 hPa | 0 mm | - | 403 W/m² | - |
| 1778084855 | 25.56° C | 60% | 1014 hPa | 0 mm | - | 434 W/m² | - |
| 1778084553 | 25.56° C | 60% | 1014 hPa | 0 mm | - | 643 W/m² | - |
| 1778084250 | 25° C | 61% | 1014.1 hPa | 0 mm | - | 555 W/m² | - |
| 1778083947 | 24.44° C | 62% | 1014.3 hPa | 0 mm | - | 406 W/m² | - |
| 1778083644 | 24.44° C | 62% | 1014.1 hPa | 0 mm | - | 344 W/m² | - |
| 1778083341 | 24.44° C | 61% | 1013.9 hPa | 0 mm | - | 330 W/m² | - |
| 1778083039 | 24.44° C | 62% | 1014 hPa | 0 mm | - | 534 W/m² | - |
* Rain latest hour (hover to see other rain measurements)
** Current wind speed in m/s (hover to see current wind gust speed)